This is the latest recevied weather packets stored in our database for station/object W0AKO. If no packets are shown the sender has not sent any weather packets the latest 10 day(s).
| Time | Temp. | Humidity | Pressure | Rain* | Wind** | Luminosity | Snow |
|---|---|---|---|---|---|---|---|
| 1777572507 | 22.78° C | 10% | 1016.4 hPa | 0 mm | - | 843 W/m² | - |
| 1777572202 | 22.22° C | 10% | 1016.2 hPa | 0 mm | - | 840 W/m² | - |
| 1777571898 | 23.33° C | 10% | 1016.3 hPa | 0 mm | - | 843 W/m² | - |
| 1777571593 | 22.78° C | 10% | 1016.4 hPa | 0 mm | - | 852 W/m² | - |
| 1777571290 | 22.78° C | 10% | 1016.6 hPa | 0 mm | - | 851 W/m² | - |
| 1777570980 | 21.67° C | 10% | 1016.8 hPa | 0 mm | - | 854 W/m² | - |
| 1777570676 | 21.67° C | 10% | 1016.7 hPa | 0 mm | - | 831 W/m² | - |
| 1777570374 | 21.11° C | 10% | 1016.8 hPa | 0 mm | - | 789 W/m² | - |
| 1777570069 | 21.67° C | 10% | 1016.8 hPa | 0 mm | - | 781 W/m² | - |
| 1777569765 | 21.11° C | 10% | 1017 hPa | 0 mm | - | 782 W/m² | - |
| 1777569460 | 21.67° C | 10% | 1017.1 hPa | 0 mm | - | 772 W/m² | - |
| 1777569158 | 21.67° C | 10% | 1017 hPa | 0 mm | - | 758 W/m² | - |
| 1777568854 | 21.11° C | 10% | 1017.1 hPa | 0 mm | - | 680 W/m² | - |
| 1777568552 | 20° C | 10% | 1017.1 hPa | 0 mm | - | 609 W/m² | - |
| 1777568248 | 20° C | 10% | 1017.2 hPa | 0 mm | - | 622 W/m² | - |
| 1777567945 | 21.67° C | 10% | 1017.1 hPa | 0 mm | - | 629 W/m² | - |
| 1777567641 | 20° C | 10% | 1017.2 hPa | 0 mm | - | 598 W/m² | - |
| 1777567339 | 20° C | 10% | 1017.3 hPa | 0 mm | - | 541 W/m² | - |
| 1777567037 | 20° C | 10% | 1017.2 hPa | 0 mm | - | 554 W/m² | - |
| 1777566734 | 18.89° C | 10% | 1017.2 hPa | 0 mm | - | 554 W/m² | - |
| 1777566432 | 18.89° C | 10% | 1017.3 hPa | 0 mm | - | 494 W/m² | - |
| 1777566129 | 18.89° C | 10% | 1017.3 hPa | 0 mm | - | 456 W/m² | - |
| 1777565824 | 18.89° C | 10% | 1017.6 hPa | 0 mm | - | 449 W/m² | - |
| 1777565521 | 18.89° C | 10% | 1017.6 hPa | 0 mm | - | 409 W/m² | - |
| 1777565217 | 18.33° C | 10% | 1017.3 hPa | 0 mm | - | 379 W/m² | - |
* Rain latest hour (hover to see other rain measurements)
** Current wind speed in m/s (hover to see current wind gust speed)